Location: Shenandoah County Park
(38.9356°N, 78.4524°W)
Time: 01:49:34
(UTC-05:00)

A-11 Canister half - Pass Details

Date: 10 December 2023
Orbit: 1526 x 1682 km, 47.3° (Epoch: 01 March)

Event Time Altitude Azimuth Distance (km) Brightness Sun altitude
Rises 21:19:21 0° 287° (WNW) 4,935 12.3 -51.1°
Reaches altitude 10° 21:22:40 10° 292° (WNW) 3,944 11.6 -51.8°
Enters shadow 21:27:32 31° 307° (NW) 2,620 10.3 -52.7°
